INTELSAT 10-02

Last updated on Mon Oct 14 2024 00:02:37 GMT+0000 (Coordinated Universal Time)

1 28358U 04022A 24287.42063222 -.00000012 00000+0 00000+0 0 9990 2 28358 0.0241 104.2798 0000960 133.1122 295.5598 1.00272373 74429
UTC large
Height (km)
Speed (km/s)
/
Latitude / Longitude
Inclination (degrees)
Orbital Period (minutes)
Azimuth
Elevation
Range (km)
Doppler Factor

Next 0 passes for location: London (51.5072 / 0.1276)

Sorry there are no passes over London.